Regional Weather Roundup
Issued by NWS

Home | Current Version | Previous Version | Graphics & Text | Print | Product List | Glossary On
Versions: 1 2 3 4 5 6 7 8 9 10 11 12 13 14 15 16 17 18 19 20 21 22 23 24 25 26 27 28 29 30 31 32 33 34 35 36 37 38 39 40 41 42 43 44 45 46 47 48 49 50
000
ASUS43 KMKX 211400
RWRWI

WISCONSIN REGIONAL WEATHER ROUNDUP
NATIONAL WEATHER SERVICE MILWAUKEE/SULLIVAN WI
900 AM CDT TUE OCT 21 2014

NOTE: "FAIR" INDICATES FEW OR NO CLOUDS BELOW 12,000 FEET WITH NO
SIGNIFICANT WEATHER AND/OR OBSTRUCTIONS TO VISIBILITY.

WIZ001-002-006>008-014>016-023>028-211500-
NORTHWEST WISCONSIN

CITY           SKY/WX    TMP DP  RH WIND       PRES   REMARKS
SUPERIOR ARPT  CLOUDY    43  35  73 E6        30.24R
ASHLAND        CLOUDY    42  35  76 NE9       30.26R
HAYWARD        CLOUDY    42  35  76 NE8       30.23R
SIREN          SUNNY     44  35  71 E6        30.21R
CUMBERLAND     CLOUDY    41  34  75 E8        30.21R
RICE LAKE      PTSUNNY   42  34  74 NE6       30.22R
CHETEK         MOSUNNY   42  35  76 NE3       30.22R
LADYSMITH      CLOUDY    42  35  75 NE8       30.23S
EAU CLAIRE     NOT AVBL
MENOMONIE      SUNNY     36  35  98 CALM      30.22R
NEW RICHMOND   SUNNY     36  36 100 CALM      30.21R
OSCEOLA        SUNNY     32  32 100 CALM      30.24R
$$

WIZ003>005-009-010-017-018-211500-
NORTH CENTRAL WISCONSIN

CITY           SKY/WX    TMP DP  RH WIND       PRES   REMARKS
MANITOWISH WTR CLOUDY    36  34  94 NE5       30.22S WCI  32
ARBOR VITAE    CLOUDY    39  36  87 NE5       30.22R
WOODRUFF       CLOUDY    39  36  87 NE5       30.22R
RHINELANDER    CLOUDY    37  33  85 NE7       30.22R WCI  32
EAGLE RIVER    CLOUDY    37  34  90 NE6       30.22R WCI  32
LAND O LAKES   CLOUDY    37  34  89 NE6       30.23R WCI  32
PHILLIPS       CLOUDY    38  34  84 NE5       30.21R WCI  35
TOMAHAWK       CLOUDY    39  33  81 E6        30.22R WCI  34
MEDFORD        CLOUDY    40  34  80 NE7       30.20R WCI  35
MERRILL        CLOUDY    41  35  79 NE7       30.21R
$$

WIZ029-030-035-036-043>047-211500-
CENTRAL WISCONSIN

CITY           SKY/WX    TMP DP  RH WIND       PRES   REMARKS
WAUSAU         CLOUDY    42  34  73 NE6       30.21R
MOSINEE        CLOUDY    41  36  81 NE10      30.22R
MARSHFIELD     CLOUDY    42  35  76 NE10      30.21R
STEVENS POINT  CLOUDY    40  34  79 NE6       30.21R
WAUPACA        CLOUDY    44  38  81 N3        30.21R
WAUTOMA        NOT AVBL
WISC RAPIDS    CLOUDY    43  35  73 E9        30.23R
CAMP DOUGLAS   NOT AVBL
$$

WIZ011>013-019>022-031-037>040-048>050-211500-
NORTHEAST WISCONSIN

CITY           SKY/WX    TMP DP  RH WIND       PRES   REMARKS
ANTIGO         CLOUDY    38  34  85 NE14      30.21R WCI  30
SHAWANO        CLOUDY    44  36  71 NE12      30.22R
OCONTO         CLOUDY    42  37  79 N10       30.20R
STURGEON BAY   CLOUDY    45  34  65 N14G20    30.20R
GREEN BAY      CLOUDY    44  38  79 N12       30.21R
MANITOWOC      NOT AVBL
APPLETON       CLOUDY    43  34  70 N16       30.21R
CLINTONVILLE   CLOUDY    43  34  70 NE9G16    30.21R
OSHKOSH        CLOUDY    44  37  76 N12       30.20R
$$

WIZ032>034-041-042-053>061-211500-
SOUTHWEST WISCONSIN

CITY           SKY/WX    TMP DP  RH WIND       PRES   REMARKS
LA CROSSE      SUNNY     44  39  82 CALM      30.22R
SPARTA         SUNNY     33  32  97 CALM      30.22S
VIROQUA        SUNNY     40  40  97 E6        30.20R
BOSCOBEL       FOG       38  36  92 CALM      30.22R VSB 1/4
PRAIRIE DU CHI FOG       38  37  96 CALM      30.21R VSB<1/4
PLATTEVILLE    SUNNY     43  40  88 NE8       30.19R
$$

WIZ056-057-062-063-064-067-068-211500-
SOUTH CENTRAL WISCONSIN

CITY           SKY/WX    TMP DP  RH WIND       PRES   REMARKS
REEDSBURG      SUNNY     41  36  82 NE6       30.20R
BARABOO/DELLS  PTSUNNY   41  36  82 NE3       30.20R
LONE ROCK      NOT AVBL
MINERAL POINT  SUNNY     43  37  81 NE7       30.19R
MADISON        PTSUNNY   43  37  79 N6        30.21R
MIDDLETON      SUNNY     45  37  75 NE9       30.20R
WATERTOWN      CLOUDY    44  39  83 N6        30.18R
MONROE         MOSUNNY   43  37  81 NE14      30.17R
JANESVILLE     MOSUNNY   46  37  71 N8        30.18R
$$

WIZ051-052-058>065-066-070>072-211500-
SOUTHEAST WISCONSIN

CITY           SKY/WX    TMP DP  RH WIND       PRES   REMARKS
MILWAUKEE      PTSUNNY   47  39  74 N10       30.16R
WAUKESHA       CLOUDY    43  37  81 N10       30.17R
MILWAUKEE/TIMM CLOUDY    45  37  76 N7        30.17R
RACINE         CLOUDY    47  39  74 N12       30.17R
BURLINGTON     MOSUNNY   43  38  81 N8        30.16R
KENOSHA        CLOUDY    47  40  76 N9        30.15R
FOND DU LAC    CLOUDY    45  37  73 N14       30.20R
SHEBOYGAN      CLOUDY    45  39  79 N10       30.18R
WEST BEND      CLOUDY    43  36  75 N9        30.17R
JUNEAU         CLOUDY    43  37  81 N6        30.20R
$$

LSZ147-162-211500-
LAKE SUPERIOR

STATION/POSITION TIME  TEMP    WIND        PRES    WAVE
                       AIR SEA DIR/SP/G            HT/PER
                 (UTC) (F)     (DEG/KT/KT) (MB)    (FT/S)
W MID LAKE BUOY  1250   41 46   70/  8/ 10 1025.2R   3/ 7
DEVILS ISLAND    1300   42      70/  7/ 10 1025.3R
PORT WING        1300   44      60/  7/ 10 1024.4
SAXON HARBOR     1300   43     100/  4/ 13 1024.0R
$$

LMZ867-665-643>646-211500-
LAKE MICHIGAN

STATION/POSITION TIME  TEMP    WIND        PRES    WAVE
                       AIR SEA DIR/SP/G            HT/PER
                 (UTC) (F)     (DEG/KT/KT) (MB)    (FT/S)
CHAMBERS ISLAND  1300   45     340/ 19/ 23 1022.4R
N MID LAKE BUOY  1250   45 51  360/ 19/ 23 1021.1R   4/ 5
NORTHPORT PIER   1300   45     360/ 12/ 16 1022.0R
SISTER BAY       1228          360/ 14/ 17   N/A
KEWAUNEE LAKESHO 1300   46      20/ 15/ 21 1020.4R
SHEBOYGAN LAKESH 1300   46 50  340/ 15/ 19 1021.5R
PORT WASHINGTON  1340   47     340/  7/ 12 1022.0R
ATWATER BUOY     1300   48     350/ 17/ 19 1021.4R
MILWAUKEE LAKESH 1300   46     340/  9/ 13   N/A
S MID LAKE BUOY  1250   51 54  350/ 21/ 23 1018.7R   6/ 7
KENOSHA   LAKESH 1300   46     330/ 10/ 14 1020.0R
$$

TC  - TEMPERATURE IN CELSIUS
VSB - VISIBILITY IN STATUTE MILES
WCI - WIND CHILL INDEX
HX  - HEAT INDEX



USA.gov is the U.S. government's official web portal to all federal, state and local government web resources and services.